VK2OU Weather Reports


Display with metric or nautical units.
time (UTC)temp
F
wind
direction
speed
MPH
gust
MPH
rain 1hr
in
rain 24hr
in
rain mn
in
humidity
%
barometer
mb
20260510043533 65 13 2.0 6.0 0.00 0.00 0.00 52
20260510042524 65 85 2.0 3.0 0.00 0.00 0.00 52
20260510041532 64 322 1.0 5.0 0.00 0.00 0.00 54
20260510040524 66 49 1.0 3.0 0.00 0.00 0.00 51
20260510035532 64 289 2.0 5.0 0.00 0.00 0.00 53
20260510034525 64 55 2.0 6.0 0.00 0.00 0.00 56
20260510034052 0 0.0 0.0 0.00 0.00 0.00
20260510033553 64 51 2.0 6.0 0.00 0.00 0.00 55
20260510032526 70 0.0 0.0 0.00 0.00 0.00 99
20260510031553 70 0.0 0.0 0.00 0.00 0.00 99
20260510031533 66 277 2.0 5.0 0.00 0.00 0.00 52
20260510030524 71 0.0 0.0 0.00 0.00 0.00 99
20260510025532 64 314 3.0 6.0 0.00 0.00 0.00 55
20260510024529 64 262 3.0 7.0 0.00 0.00 0.00 56
20260510024521 71 0.0 0.0 0.00 0.00 0.00 99
20260510024025 70 0.0 0.0 0.00 0.00 0.00 99
20260510023533 63 242 1.0 3.0 0.00 0.00 0.00 54
20260510022537 71 0.0 0.0 0.00 0.00 0.00 99
20260510022524 62 218 2.0 5.0 0.00 0.00 0.00 55
20260510021533 62 201 1.0 3.0 0.00 0.00 0.00 56
20260510021526 70 0.0 0.0 0.00 0.00 0.00 99
20260510020534 70 0.0 0.0 0.00 0.00 0.00 99
20260510020525 61 143 2.0 5.0 0.00 0.00 0.00 57
20260510015542 71 0.0 0.0 0.00 0.00 0.00 99
20260510015532 61 166 2.0 5.0 0.00 0.00 0.00 57
20260510014531 71 0.0 0.0 0.00 0.00 0.00 99
20260510014525 61 179 0.0 2.0 0.00 0.00 0.00 57
20260510013552 61 167 1.0 3.0 0.00 0.00 0.00 55
20260510013521 70 0.0 0.0 0.00 0.00 0.00 99
20260510012548 71 0.0 0.0 0.00 0.00 0.00 99
20260510012545 61 178 0.0 1.0 0.00 0.00 0.00 56
20260510011615 69 0.0 0.0 0.00 0.00 0.00 99
20260510010544 68 0.0 0.0 0.00 0.00 0.00 99
20260510010525 60 184 0.0 2.0 0.00 0.00 0.00 58
20260510005611 68 0.0 0.0 0.00 0.00 0.00 99
20260510005533 60 175 1.0 3.0 0.00 0.00 0.00 59
20260510004545 60 166 2.0 3.0 0.00 0.00 0.00 61
20260510004541 67 0.0 0.0 0.00 0.00 0.00 99
20260510003533 59 177 1.0 2.0 0.00 0.00 0.00 63
20260510003531 68 0.0 0.0 0.00 0.00 0.00 99
20260510002525 60 173 1.0 3.0 0.00 0.00 0.00 64
20260510002521 67 0.0 0.0 0.00 0.00 0.00 99
20260510001553 58 177 1.0 2.0 0.00 0.00 0.00 66
20260510001549 67 0.0 0.0 0.00 0.00 0.00 99
20260510000536 64 0.0 0.0 0.00 0.00 0.00 99
20260510000524 58 177 1.0 2.0 0.00 0.00 0.00 67
20260509235644 59 0.0 0.0 0.00 0.00 0.00 99
20260509235533 56 175 1.0 2.0 0.00 0.00 0.00 71
20260509234533 59 0.0 0.0 0.00 0.00 0.00 99
20260509234526 54 178 1.0 3.0 0.00 0.00 0.00 76
20260509233532 53 175 1.0 3.0 0.00 0.00 0.00 78
20260509233523 58 0.0 0.0 0.00 0.00 0.00 99
20260509232530 56 0.0 0.0 0.00 0.00 0.00 99
20260509232526 51 174 1.0 2.0 0.00 0.00 0.00 80
20260509231533 51 178 1.0 3.0 0.00 0.00 0.00 81
20260509231520 55 0.0 0.0 0.00 0.00 0.00 99
20260509230606 55 0.0 0.0 0.00 0.00 0.00 99
20260509230525 51 176 1.0 2.0 0.00 0.00 0.00 80
20260509225535 53 0.0 0.0 0.00 0.00 0.00 99
20260509225533 50 184 1.0 2.0 0.00 0.00 0.00 81
20260509224543 52 0.0 0.0 0.00 0.00 0.00 99
20260509224525 49 181 1.0 2.0 0.00 0.00 0.00 82
20260509224201 50 0.0 0.0 0.00 0.00 0.00 99
20260509223533 48 189 1.0 2.0 0.00 0.00 0.00 84
20260509222524 47 185 1.0 2.0 0.00 0.00 0.00 86
20260509222522 49 0.0 0.0 0.00 0.00 0.00 99
20260509221553 45 185 0.0 2.0 0.00 0.00 0.00 89
20260509221550 48 0.0 0.0 0.00 0.00 0.00 99
20260509220537 46 0.0 0.0 0.00 0.00 0.00 99
20260509220525 44 183 1.0 2.0 0.00 0.00 0.00 90
20260509215532 43 184 1.0 3.0 0.00 0.00 0.00 92
20260509215527 44 0.0 0.0 0.00 0.00 0.00 99
20260509214535 43 0.0 0.0 0.00 0.00 0.00 99
20260509214524 42 183 1.0 5.0 0.00 0.00 0.00 95
20260509213533 41 188 1.0 2.0 0.00 0.00 0.00 97
20260509212525 40 187 1.0 2.0 0.00 0.00 0.00 97
20260509211533 40 184 1.0 3.0 0.00 0.00 0.00 97
20260509210546 39 184 1.0 3.0 0.00 0.00 0.00 97
20260509205553 39 188 1.0 2.0 0.00 0.00 0.00 97
20260509205023 39 0.0 0.0 0.00 0.00 0.00 99
20260509204546 39 188 1.0 2.0 0.00 0.00 0.00 97
20260509204030 39 0.0 0.0 0.00 0.00 0.00 99
20260509203533 39 188 1.0 2.0 0.00 0.00 0.00 97
20260509203040 39 0.0 0.0 0.00 0.00 0.00 99
20260509202525 38 188 2.0 2.0 0.00 0.00 0.00 97
20260509202027 39 0.0 0.0 0.00 0.00 0.00 99
20260509201554 38 185 2.0 3.0 0.00 0.00 0.00 97
20260509201036 39 0.0 0.0 0.00 0.00 0.00 99
20260509200525 38 187 1.0 2.0 0.00 0.00 0.00 96
20260509200025 39 0.0 0.0 0.00 0.00 0.00 99
20260509195533 38 186 1.0 3.0 0.00 0.00 0.00 96
20260509195033 39 0.0 0.0 0.00 0.00 0.00 99
20260509194545 39 188 1.0 2.0 0.00 0.00 0.00 96
20260509194022 40 0.0 0.0 0.00 0.00 0.00 99
20260509193553 39 186 2.0 2.0 0.00 0.00 0.00 95
20260509193029 40 0.0 0.0 0.00 0.00 0.00 99
20260509192545 40 183 2.0 3.0 0.00 0.00 0.00 95
20260509192019 41 0.0 0.0 0.00 0.00 0.00 99
20260509191553 40 186 2.0 3.0 0.00 0.00 0.00 95
20260509191027 41 0.0 0.0 0.00 0.00 0.00 99
20260509190524 41 188 1.0 1.0 0.00 0.00 0.00 95
20260509190035 41 0.0 0.0 0.00 0.00 0.00 99
20260509185614 41 184 2.0 3.0 0.00 0.00 0.00 96
20260509185024 41 0.0 0.0 0.00 0.00 0.00 99
20260509184545 40 185 2.0 3.0 0.00 0.00 0.00 96
20260509184032 41 0.0 0.0 0.00 0.00 0.00 99
20260509183533 41 188 2.0 5.0 0.00 0.00 0.00 96
20260509183022 41 0.0 0.0 0.00 0.00 0.00 99
20260509182526 40 187 2.0 3.0 0.00 0.00 0.00 97
20260509182030 41 0.0 0.0 0.00 0.00 0.00 99
20260509181532 40 186 2.0 3.0 0.00 0.00 0.00 97
20260509181038 41 0.0 0.0 0.00 0.00 0.00 99
20260509180525 40 186 2.0 3.0 0.00 0.00 0.00 97
20260509180026 41 0.0 0.0 0.00 0.00 0.00 99
20260509175533 40 186 2.0 3.0 0.00 0.00 0.00 97
20260509175054 41 0.0 0.0 0.00 0.00 0.00 99
20260509174525 40 187 2.0 3.0 0.00 0.00 0.00 97
20260509174024 40 0.0 0.0 0.00 0.00 0.00 99
20260509173533 40 189 1.0 2.0 0.00 0.00 0.00 97
20260509173032 40 0.0 0.0 0.00 0.00 0.00 99
20260509172526 39 188 2.0 3.0 0.00 0.00 0.00 97
20260509172021 40 0.0 0.0 0.00 0.00 0.00 99
20260509171533 39 188 1.0 2.0 0.00 0.00 0.00 97
20260509171029 40 0.0 0.0 0.00 0.00 0.00 99
20260509170525 40 188 1.0 2.0 0.00 0.00 0.00 97
20260509170037 40 0.0 0.0 0.00 0.00 0.00 99
20260509165533 40 188 0.0 1.0 0.00 0.00 0.00 97
20260509165026 40 0.0 0.0 0.00 0.00 0.00 99
20260509164605 40 189 1.0 2.0 0.00 0.00 0.00 96
20260509164034 41 0.0 0.0 0.00 0.00 0.00 99
20260509163553 40 189 0.0 1.0 0.00 0.00 0.00 96
20260509163023 41 0.0 0.0 0.00 0.00 0.00 99
20260509162525 40 188 0.0 1.0 0.00 0.00 0.00 96
20260509162031 41 0.0 0.0 0.00 0.00 0.00 99
20260509161533 40 189 0.0 1.0 0.00 0.00 0.00 96
20260509161141 41 0.0 0.0 0.00 0.00 0.00 99
20260509160545 40 0.0 0.0 0.00 0.00 0.00 96
20260509160108 41 0.0 0.0 0.00 0.00 0.00 99
20260509155533 40 191 0.0 1.0 0.00 0.00 0.00 96
20260509155036 40 0.0 0.0 0.00 0.00 0.00 99
20260509154526 40 188 0.0 2.0 0.00 0.00 0.00 95
20260509154025 40 0.0 0.0 0.00 0.00 0.00 99
20260509153533 40 0.0 0.0 0.00 0.00 0.00 94
20260509153033 41 0.0 0.0 0.00 0.00 0.00 99
20260509152525 41 185 0.0 2.0 0.00 0.00 0.00 94
20260509152022 41 0.0 0.0 0.00 0.00 0.00 99
20260509151533 41 187 1.0 2.0 0.00 0.00 0.00 94
20260509151032 42 0.0 0.0 0.00 0.00 0.00 99
20260509150525 42 187 0.0 1.0 0.00 0.00 0.00 94
20260509150020 42 0.0 0.0 0.00 0.00 0.00 99
20260509145533 42 184 1.0 2.0 0.00 0.00 0.00 94
20260509145048 42 0.0 0.0 0.00 0.00 0.00 99
20260509144525 42 184 1.0 3.0 0.00 0.00 0.00 94
20260509144036 42 0.0 0.0 0.00 0.00 0.00 99
20260509143533 42 185 2.0 3.0 0.00 0.00 0.00 94
20260509143025 42 0.0 0.0 0.00 0.00 0.00 99
20260509142525 42 188 1.0 2.0 0.00 0.00 0.00 94
20260509142033 42 0.0 0.0 0.00 0.00 0.00 99
20260509141533 42 188 1.0 2.0 0.00 0.00 0.00 93
20260509141022 43 0.0 0.0 0.00 0.00 0.00 99
20260509140525 42 189 0.0 1.0 0.00 0.00 0.00 93
20260509140053 43 0.0 0.0 0.00 0.00 0.00 99
20260509135533 42 189 1.0 2.0 0.00 0.00 0.00 93
20260509135020 43 0.0 0.0 0.00 0.00 0.00 99
20260509134544 42 190 1.0 2.0 0.00 0.00 0.00 92
20260509134027 43 0.0 0.0 0.00 0.00 0.00 99
20260509133532 43 0.0 0.0 0.00 0.00 0.00 92
20260509133056 43 0.0 0.0 0.00 0.00 0.00 99
20260509132524 42 195 1.0 1.0 0.00 0.00 0.00 93
20260509132024 42 0.0 0.0 0.00 0.00 0.00 99
20260509131533 42 193 0.0 2.0 0.00 0.00 0.00 92
20260509131053 43 0.0 0.0 0.00 0.00 0.00 99
20260509130525 43 193 1.0 2.0 0.00 0.00 0.00 92
20260509130022 43 0.0 0.0 0.00 0.00 0.00 99
20260509125533 43 195 1.0 2.0 0.00 0.00 0.00 91
20260509125029 44 0.0 0.0 0.00 0.00 0.00 99
20260509124525 44 193 1.0 2.0 0.00 0.00 0.00 91
20260509124037 44 0.0 0.0 0.00 0.00 0.00 99
20260509123553 44 199 1.0 2.0 0.00 0.00 0.00 91
20260509123027 44 0.0 0.0 0.00 0.00 0.00 99
20260509122525 44 202 1.0 2.0 0.00 0.00 0.00 90
20260509122035 44 0.0 0.0 0.00 0.00 0.00 99
20260509121533 44 195 2.0 3.0 0.00 0.00 0.00 90
20260509121024 45 0.0 0.0 0.00 0.00 0.00 99
20260509120606 45 200 1.0 2.0 0.00 0.00 0.00 88
20260509120112 46 0.0 0.0 0.00 0.00 0.00 99
20260509115533 47 194 1.0 2.0 0.00 0.00 0.00 86
20260509115021 46 0.0 0.0 0.00 0.00 0.00 99
20260509114525 47 0.0 0.0 0.00 0.00 0.00 86
20260509114029 46 0.0 0.0 0.00 0.00 0.00 99
20260509113533 47 0.0 0.0 0.00 0.00 0.00 86
20260509113037 46 0.0 0.0 0.00 0.00 0.00 99
20260509112525 47 0.0 0.0 0.00 0.00 0.00 86
20260509112026 46 0.0 0.0 0.00 0.00 0.00 99
20260509111533 47 211 1.0 1.0 0.00 0.00 0.00 87
20260509111034 47 0.0 0.0 0.00 0.00 0.00 99
20260509110525 47 0.0 0.0 0.00 0.00 0.00 87
20260509105533 47 0.0 0.0 0.00 0.00 0.00 85
20260509104525 47 205 1.0 2.0 0.00 0.00 0.00 85
20260509103533 48 208 0.0 2.0 0.00 0.00 0.00 84
20260509102525 48 215 1.0 2.0 0.00 0.00 0.00 83
20260509101614 49 207 0.0 1.0 0.00 0.00 0.00 82
20260509100525 50 224 0.0 1.0 0.00 0.00 0.00 81
20260509100034 49 0.0 0.0 0.00 0.00 0.00 99
20260509095554 50 218 1.0 2.0 0.00 0.00 0.00 80
20260509095023 49 0.0 0.0 0.00 0.00 0.00 99
20260509094525 50 230 1.0 2.0 0.00 0.00 0.00 79
20260509094031 50 0.0 0.0 0.00 0.00 0.00 99
20260509093533 50 221 1.0 2.0 0.00 0.00 0.00 79
20260509093020 50 0.0 0.0 0.00 0.00 0.00 99
20260509092525 51 236 0.0 1.0 0.00 0.00 0.00 78
20260509092028 51 0.0 0.0 0.00 0.00 0.00 99
20260509091534 51 232 1.0 1.0 0.00 0.00 0.00 78
20260509091036 52 0.0 0.0 0.00 0.00 0.00 99
20260509090545 52 0.0 0.0 0.00 0.00 0.00 74
20260509090025 53 0.0 0.0 0.00 0.00 0.00 99
20260509085533 53 251 1.0 2.0 0.00 0.00 0.00 71
20260509085033 53 0.0 0.0 0.00 0.00 0.00 99
20260509084546 54 242 2.0 2.0 0.00 0.00 0.00 70
20260509084023 53 0.0 0.0 0.00 0.00 0.00 99
20260509083553 54 246 1.0 3.0 0.00 0.00 0.00 70
20260509083030 53 0.0 0.0 0.00 0.00 0.00 99
20260509082525 54 224 0.0 1.0 0.00 0.00 0.00 70
20260509082019 54 0.0 0.0 0.00 0.00 0.00 99
20260509081533 54 245 2.0 2.0 0.00 0.00 0.00 70
20260509081048 54 0.0 0.0 0.00 0.00 0.00 99
20260509080525 53 233 1.0 2.0 0.00 0.00 0.00 72
20260509080035 55 0.0 0.0 0.00 0.00 0.00 99
20260509075533 54 228 1.0 2.0 0.00 0.00 0.00 69
20260509075024 55 0.0 0.0 0.00 0.00 0.00 99
20260509074526 55 259 3.0 6.0 0.00 0.00 0.00 69
20260509074033 55 0.0 0.0 0.00 0.00 0.00 99
20260509073533 55 263 3.0 5.0 0.00 0.00 0.00 68
20260509073022 56 0.0 0.0 0.00 0.00 0.00 99
20260509072525 56 271 3.0 6.0 0.00 0.00 0.00 67
20260509072030 57 0.0 0.0 0.00 0.00 0.00 99
20260509071533 56 268 3.0 6.0 0.00 0.00 0.00 67
20260509071020 57 0.0 0.0 0.00 0.00 0.00 99
20260509070525 57 263 2.0 5.0 0.00 0.00 0.00 65
20260509070027 59 0.0 0.0 0.00 0.00 0.00 99
20260509065553 57 263 2.0 5.0 0.00 0.00 0.00 64
20260509065035 61 0.0 0.0 0.00 0.00 0.00 99
20260509064526 58 263 3.0 6.0 0.00 0.00 0.00 63
20260509064024 63 0.0 0.0 0.00 0.00 0.00 99
20260509063554 59 262 2.0 3.0 0.00 0.00 0.00 61
20260509063032 65 0.0 0.0 0.00 0.00 0.00 99
20260509062525 60 252 1.0 2.0 0.00 0.00 0.00 60
20260509062118 67 0.0 0.0 0.00 0.00 0.00 99
20260509061534 61 255 2.0 5.0 0.00 0.00 0.00 56
20260509061110 67 0.0 0.0 0.00 0.00 0.00 99
20260509060525 62 266 2.0 3.0 0.00 0.00 0.00 54
20260509060056 67 0.0 0.0 0.00 0.00 0.00 99
20260509055553 62 262 2.0 5.0 0.00 0.00 0.00 55
20260509054525 62 263 3.0 6.0 0.00 0.00 0.00 55
20260509053533 63 271 3.0 6.0 0.00 0.00 0.00 53
20260509053138 0 0.0 0.0 0.00 0.00 0.00
20260509052526 64 242 2.0 3.0 0.00 0.00 0.00 52
20260509052032 70 0.0 0.0 0.00 0.00 0.00 99
20260509051554 63 253 2.0 6.0 0.00 0.00 0.00 52
20260509051039 72 0.0 0.0 0.00 0.00 0.00 99
20260509050525 64 226 1.0 3.0 0.00 0.00 0.00 50
20260509050048 71 0.0 0.0 0.00 0.00 0.00 99
20260509045533 64 245 2.0 5.0 0.00 0.00 0.00 51
20260509045056 70 0.0 0.0 0.00 0.00 0.00 99
20260509044702 70 0.0 0.0 0.00 0.00 0.00 99
20260509044525 64 234 1.0 3.0 0.00 0.00 0.00 51